Location: Newark
(34.0131°N, 4.3314°W)
Time: 14:54:44
(UTC+00:00)

A-11 Canister half - Pass Details

Date: 29 October 2019
Orbit: 1514 x 1686 km, 47.2° (Epoch: 17 November)

Event Time Altitude Azimuth Distance (km) Brightness Sun altitude
Rises 02:23:40 0° 282° (WNW) 4,914 - -51.7°
Reaches altitude 10° 02:27:15 10° 290° (WNW) 3,910 - -51.0°
Maximum altitude 02:36:21 38° 356° (N) 2,315 - -49.2°
Exits shadow 02:38:59 33° 26° (NNE) 2,475 10.2 -48.7°
Drops below altitude 10° 02:45:10 10° 62° (ENE) 3,790 11.6 -47.5°
Sets 02:48:35 0° 71° (ENE) 4,750 12.3 -46.8°
